Location: Krasnoyarskiy Pitomnik
(51.1333°N, 71.6167°E)
Time: 23:58:32
(UTC+00:00)

NOSS 2-2 (C) - Pass Details

Date: 02 June 2022
Orbit: 439 x 1763 km, 63.3° (Epoch: 02 June)

Event Time Altitude Azimuth Distance (km) Brightness Sun altitude
Rises 17:09:05 0° 316° (NW) 2,838 8.6 -11.8°
Reaches altitude 10° 17:11:03 10° 319° (NW) 2,060 7.6 -12.0°
Maximum altitude 17:15:42 69° 43° (NE) 863 4.3 -12.3°
Enters shadow 17:21:36 13° 126° (SE) 2,630 6.2 -12.7°
